Regional Weather Roundup
Issued by NWS

Home | Current Version | Previous Version | Text Only | Print | Product List | Glossary On
Versions: 1 2 3 4 5 6 7 8 9 10 11 12 13 14 15 16 17 18 19 20 21 22 23 24 25 26 27 28 29 30 31 32 33 34 35 36 37 38 39 40 41 42 43 44 45 46 47 48 49 50
000
ASUS46 KPQR 230310
RWROR

OREGON REGIONAL WEATHER ROUNDUP
NATIONAL WEATHER SERVICE PORTLAND OR
700 PM PST WED FEB 22 2017

NOTE: "FAIR" INDICATES FEW OR NO CLOUDS BELOW 12,000 FEET WITH
NO SIGNIFICANT WEATHER AND/OR OBSTRUCTIONS TO VISIBILITY.

ORZ001>013-230400-
NORTHWEST OREGON


CITY           SKY/WX    TMP DP  RH WIND       PRES   REMARKS
ASTORIA        PTCLDY    37  32  82 CALM      30.21R
PORTLAND       MOCLDY    40  34  79 W5        30.21R
VANCOUVER WA   MOCLDY    40  37  89 NW3       30.20R
SCAPPOOSE      CLOUDY    38  34  85 NW3       30.19S
HILLSBORO      CLOUDY    38  35  89 W5        30.20S WCI  34
AURORA         MOCLDY    38  35  89 CALM      30.21S
MCMINNVILLE    LGT RAIN  40  36  86 NE6       30.21R
SALEM          MOCLDY    38  35  89 CALM      30.19R
CORVALLIS        N/A     39  34  81 E8        30.21R WCI  34
EUGENE         CLOUDY    37  36  96 SW6       30.21R WCI  32
$$

ORZ021-028-230400-
SOUTHWEST OREGON


CITY           SKY/WX    TMP DP  RH WIND       PRES   REMARKS
NORTH BEND     PTCLDY    37  37 100 SE6       30.25S WCI  33
BROOKINGS      MOCLDY    40  35  83 VRB5      30.23F
ROSEBURG       LGT RAIN  37  35  92 CALM      30.21S
SEXTON SUMMIT  LGT SNOW  27  26  96 CALM      30.06S FOG
MEDFORD        LGT RAIN  37  33  85 N3        30.17R
$$

ORZ014>016-041-230400-
COLUMBIA GORGE


CITY           SKY/WX    TMP DP  RH WIND       PRES   REMARKS
TROUTDALE      MOCLDY    41  34  76 S3        30.20S
THE DALLES     PTCLDY    41  30  65 NW10      30.13R
$$

ORZ029>031-041-044-049-050-061>064-502-503-505>511-230400-
EASTERN OREGON


CITY           SKY/WX    TMP DP  RH WIND       PRES   REMARKS
REDMOND        MOCLDY    32  23  69 W8        30.04R WCI  25
BEND           PTCLDY    30  25  80 CALM      30.04R
PRINEVILLE     PTCLDY    32  23  69 N7        30.03S WCI  26
KLAMATH FALLS  CLOUDY    29  26  89 NW8       30.01R WCI  21
LAKEVIEW       CLOUDY    27  21  80 N14       29.96S WCI  15
HERMISTON      MOCLDY    36  30  79 S6        30.08S WCI  31
PENDLETON      MOCLDY    35  30  82 W3        30.06S
JOHN DAY       MOCLDY    32  22  66 CALM      29.99R
MEACHAM        CLOUDY    28  23  81 CALM      29.98S
LA GRANDE      CLOUDY    34  27  75 NW9       29.99S WCI  26
BAKER CITY     CLOUDY    31  24  75 NW17      29.94S WCI  19
BURNS          CLOUDY    28  21  75 NW12      29.94R WCI  18
ROME             N/A     30  27  88 NW3       29.89S
ONTARIO        CLOUDY    37  29  72 NW17      29.94S WCI  27
$$



USA.gov is the U.S. government's official web portal to all federal, state and local government web resources and services.